Time,TemperatureF,DewpointF,PressureIn,WindDirection,WindDirectionDegrees,WindSpeedMPH,WindSpeedGustMPH,Humidity,HourlyPrecipIn,Conditions,Clouds,dailyrainin,SoftwareType,DateUTC
2013-01-27 00:01:00,75.2,67.1,29.20,SSE,158,12.7,12.7,76,0.00,CLR,OVC,0.00,WeatherDisplay:10.37,2013-01-26 13:01:00,
2013-01-27 00:06:00,75.2,67.5,29.20,ENE,68,4.6,4.6,77,0.00,CLR,OVC,0.00,WeatherDisplay:10.37,2013-01-26 13:06:00,
2013-01-27 00:11:00,75.2,67.1,29.20,East,90,8.1,8.1,76,0.00,CLR,OVC,0.00,WeatherDisplay:10.37,2013-01-26 13:11:00,
2013-01-27 00:16:00,75.2,67.1,29.20,East,90,8.1,8.1,76,0.00,CLR,OVC,0.00,WeatherDisplay:10.37,2013-01-26 13:16:00,
2013-01-27 00:21:00,75.2,67.1,29.20,SSE,158,7.4,7.4,76,0.00,CLR,OVC,0.00,WeatherDisplay:10.37,2013-01-26 13:21:00,
2013-01-27 00:26:00,75.2,67.1,29.20,ENE,68,3.5,3.5,76,0.00,CLR,OVC,0.00,WeatherDisplay:10.37,2013-01-26 13:26:00,
2013-01-27 00:31:00,75.2,67.1,29.20,SSE,158,3.3,3.3,76,0.00,CLR,OVC,0.00,WeatherDisplay:10.37,2013-01-26 13:31:00,
2013-01-27 00:36:00,75.0,67.3,29.20,ESE,112,9.2,9.2,77,0.00,CLR,OVC,0.00,WeatherDisplay:10.37,2013-01-26 13:36:00,
2013-01-27 00:41:00,75.0,67.3,29.20,ESE,112,4.6,4.6,77,0.00,CLR,OVC,0.00,WeatherDisplay:10.37,2013-01-26 13:41:00,
2013-01-27 00:46:00,75.0,67.3,29.18,ESE,112,7.4,7.4,77,0.00,CLR,OVC,0.00,WeatherDisplay:10.37,2013-01-26 13:46:00,
2013-01-27 00:51:00,75.0,67.3,29.18,East,90,2.6,2.6,77,0.00,CLR,OVC,0.00,WeatherDisplay:10.37,2013-01-26 13:51:00,
2013-01-27 00:56:00,75.0,67.3,29.18,ENE,68,8.1,8.1,77,0.00,CLR,OVC,0.00,WeatherDisplay:10.37,2013-01-26 13:56:00,
2013-01-27 01:01:00,75.0,67.3,29.18,SSE,158,5.8,6.4,77,0.00,CLR,OVC,0.00,WeatherDisplay:10.37,2013-01-26 14:01:00,
2013-01-27 01:06:00,74.8,67.1,29.18,SE,135,8.1,8.1,77,0.00,CLR,OVC,0.00,WeatherDisplay:10.37,2013-01-26 14:06:00,
2013-01-27 01:11:00,74.8,67.1,29.18,ESE,112,8.1,8.1,77,0.00,CLR,OVC,0.00,WeatherDisplay:10.37,2013-01-26 14:11:00,
2013-01-27 01:16:00,74.8,67.1,29.18,ESE,112,6.9,6.9,77,0.00,CLR,OVC,0.00,WeatherDisplay:10.37,2013-01-26 14:16:00,
2013-01-27 01:21:00,74.8,67.1,29.18,ESE,112,9.2,9.2,77,0.00,CLR,OVC,0.00,WeatherDisplay:10.37,2013-01-26 14:21:00,
2013-01-27 01:26:00,74.7,67.0,29.18,East,90,4.6,4.6,77,0.00,CLR,OVC,0.00,WeatherDisplay:10.37,2013-01-26 14:26:00,
2013-01-27 01:31:00,74.7,67.0,29.18,ESE,112,12.8,12.8,77,0.00,CLR,OVC,0.00,WeatherDisplay:10.37,2013-01-26 14:31:00,
2013-01-27 01:36:00,74.7,67.0,29.18,East,90,3.8,3.8,77,0.00,CLR,OVC,0.00,WeatherDisplay:10.37,2013-01-26 14:36:00,
2013-01-27 01:41:00,74.7,67.0,29.18,East,90,5.8,6.0,77,0.00,CLR,OVC,0.00,WeatherDisplay:10.37,2013-01-26 14:41:00,
2013-01-27 01:46:00,74.7,67.0,29.18,East,90,3.5,3.5,77,0.00,CLR,OVC,0.00,WeatherDisplay:10.37,2013-01-26 14:46:00,
2013-01-27 01:51:00,74.7,67.0,29.18,NNE,22,3.5,3.5,77,0.00,CLR,OVC,0.00,WeatherDisplay:10.37,2013-01-26 14:51:00,
2013-01-27 01:56:00,74.8,67.1,29.18,East,90,3.5,3.5,77,0.00,CLR,OVC,0.00,WeatherDisplay:10.37,2013-01-26 14:56:00,
2013-01-27 02:01:00,74.7,66.6,29.15,NNE,22,4.6,4.6,76,0.00,CLR,OVC,0.00,WeatherDisplay:10.37,2013-01-26 15:01:00,
2013-01-27 02:06:00,74.8,66.8,29.15,ENE,68,3.5,3.5,76,0.00,CLR,OVC,0.00,WeatherDisplay:10.37,2013-01-26 15:06:00,
2013-01-27 02:11:00,74.7,66.6,29.15,ESE,112,2.9,2.9,76,0.00,CLR,OVC,0.00,WeatherDisplay:10.37,2013-01-26 15:11:00,
2013-01-27 02:16:00,74.7,66.6,29.15,NNW,338,4.6,4.6,76,0.00,CLR,OVC,0.00,WeatherDisplay:10.37,2013-01-26 15:16:00,
2013-01-27 02:21:00,74.7,66.6,29.15,East,90,0.0,0.0,76,0.00,CLR,OVC,0.00,WeatherDisplay:10.37,2013-01-26 15:21:00,
2013-01-27 02:26:00,74.7,66.6,29.15,ENE,68,2.3,2.3,76,0.00,CLR,OVC,0.00,WeatherDisplay:10.37,2013-01-26 15:26:00,
2013-01-27 02:31:00,74.7,66.6,29.12,East,90,4.6,4.6,76,0.00,CLR,OVC,0.00,WeatherDisplay:10.37,2013-01-26 15:31:00,
2013-01-27 02:36:00,74.5,66.4,29.12,East,90,4.6,4.6,76,0.00,CLR,OVC,0.00,WeatherDisplay:10.37,2013-01-26 15:36:00,
2013-01-27 02:41:00,74.5,66.8,29.12,ESE,112,4.6,4.6,77,0.00,CLR,OVC,0.00,WeatherDisplay:10.37,2013-01-26 15:41:00,
2013-01-27 02:46:00,74.7,66.6,29.15,NE,45,0.0,0.0,76,0.00,CLR,OVC,0.00,WeatherDisplay:10.37,2013-01-26 15:46:00,
2013-01-27 02:51:00,74.7,66.6,29.15,East,90,1.2,0.0,76,0.00,CLR,OVC,0.00,WeatherDisplay:10.37,2013-01-26 15:51:00,
2013-01-27 02:56:00,74.7,66.6,29.15,NNE,22,3.5,3.5,76,0.00,CLR,OVC,0.00,WeatherDisplay:10.37,2013-01-26 15:56:00,
2013-01-27 03:01:00,74.7,67.0,29.15,NE,45,0.0,0.0,77,0.00,CLR,OVC,0.00,WeatherDisplay:10.37,2013-01-26 16:01:00,
2013-01-27 03:06:00,74.7,66.6,29.15,ESE,112,2.3,2.3,76,0.00,CLR,OVC,0.00,WeatherDisplay:10.37,2013-01-26 16:06:00,
2013-01-27 03:11:00,74.7,67.0,29.15,SSE,158,5.8,5.8,77,0.00,CLR,OVC,0.00,WeatherDisplay:10.37,2013-01-26 16:11:00,
2013-01-27 03:16:00,74.7,66.6,29.15,NE,45,0.0,0.0,76,0.00,CLR,OVC,0.00,WeatherDisplay:10.37,2013-01-26 16:16:00,
2013-01-27 03:21:00,74.7,66.6,29.15,NE,45,3.5,3.5,76,0.00,CLR,OVC,0.00,WeatherDisplay:10.37,2013-01-26 16:21:00,
2013-01-27 03:26:00,74.7,67.0,29.15,East,90,3.5,3.5,77,0.00,CLR,OVC,0.00,WeatherDisplay:10.37,2013-01-26 16:26:00,
2013-01-27 03:31:00,74.7,67.0,29.15,NNE,22,0.0,0.0,77,0.00,CLR,OVC,0.00,WeatherDisplay:10.37,2013-01-26 16:31:00,
2013-01-27 03:36:00,74.7,67.0,29.15,NE,45,4.6,4.6,77,0.00,CLR,OVC,0.00,WeatherDisplay:10.37,2013-01-26 16:36:00,
2013-01-27 03:41:00,74.7,67.0,29.15,SE,135,2.3,2.3,77,0.00,CLR,OVC,0.00,WeatherDisplay:10.37,2013-01-26 16:41:00,
2013-01-27 03:46:00,74.7,67.0,29.12,East,90,2.3,2.3,77,0.00,CLR,OVC,0.00,WeatherDisplay:10.37,2013-01-26 16:46:00,
2013-01-27 03:51:00,74.5,66.8,29.12,NE,45,3.5,3.5,77,0.00,CLR,OVC,0.00,WeatherDisplay:10.37,2013-01-26 16:51:00,
2013-01-27 03:56:00,74.5,66.8,29.12,ENE,68,1.4,1.4,77,0.00,CLR,OVC,0.00,WeatherDisplay:10.37,2013-01-26 16:56:00,
2013-01-27 04:01:00,74.5,66.8,29.15,NE,45,3.5,3.5,77,0.00,CLR,OVC,0.00,WeatherDisplay:10.37,2013-01-26 17:01:00,
2013-01-27 04:06:00,74.5,66.8,29.15,ENE,68,2.3,2.3,77,0.00,CLR,OVC,0.00,WeatherDisplay:10.37,2013-01-26 17:06:00,
2013-01-27 04:11:00,74.5,66.8,29.15,East,90,2.3,2.3,77,0.00,CLR,OVC,0.00,WeatherDisplay:10.37,2013-01-26 17:11:00,
2013-01-27 04:16:00,74.3,66.6,29.15,East,90,3.5,3.5,77,0.00,CLR,OVC,0.00,WeatherDisplay:10.37,2013-01-26 17:16:00,
2013-01-27 04:21:00,74.3,67.0,29.15,ESE,112,0.0,0.0,78,0.00,CLR,OVC,0.00,WeatherDisplay:10.37,2013-01-26 17:21:00,
2013-01-27 04:26:00,74.5,67.2,29.15,NE,45,2.3,2.3,78,0.00,CLR,OVC,0.00,WeatherDisplay:10.37,2013-01-26 17:26:00,
2013-01-27 04:32:00,74.3,67.0,29.15,East,90,0.0,0.0,78,0.00,CLR,OVC,0.00,WeatherDisplay:10.37,2013-01-26 17:32:00,
2013-01-27 04:37:00,74.3,67.0,29.15,NE,45,0.0,0.0,78,0.00,CLR,OVC,0.00,WeatherDisplay:10.37,2013-01-26 17:37:00,
2013-01-27 04:42:00,74.3,67.0,29.15,NNW,338,2.3,0.0,78,0.00,CLR,OVC,0.00,WeatherDisplay:10.37,2013-01-26 17:42:00,
2013-01-27 04:47:00,74.3,67.0,29.12,East,90,0.0,0.0,78,0.00,CLR,OVC,0.00,WeatherDisplay:10.37,2013-01-26 17:47:00,
2013-01-27 04:52:00,74.3,67.0,29.12,NE,45,3.5,3.5,78,0.00,CLR,OVC,0.00,WeatherDisplay:10.37,2013-01-26 17:52:00,
2013-01-27 04:57:00,74.3,67.0,29.12,East,90,2.4,2.4,78,0.00,CLR,OVC,0.00,WeatherDisplay:10.37,2013-01-26 17:57:00,
2013-01-27 05:02:00,74.3,67.0,29.15,SE,135,4.6,4.6,78,0.00,CLR,OVC,0.00,WeatherDisplay:10.37,2013-01-26 18:02:00,
2013-01-27 05:07:00,74.3,67.4,29.15,ENE,68,2.3,2.3,79,0.00,CLR,OVC,0.00,WeatherDisplay:10.37,2013-01-26 18:07:00,
2013-01-27 05:12:00,74.1,67.2,29.15,East,90,4.6,4.6,79,0.00,CLR,OVC,0.00,WeatherDisplay:10.37,2013-01-26 18:12:00,
2013-01-27 05:17:00,74.1,67.2,29.15,NE,45,6.9,6.9,79,0.00,CLR,OVC,0.00,WeatherDisplay:10.37,2013-01-26 18:17:00,
2013-01-27 05:22:00,74.1,67.6,29.15,East,90,2.3,2.3,80,0.00,CLR,OVC,0.00,WeatherDisplay:10.37,2013-01-26 18:22:00,
2013-01-27 05:27:00,73.9,67.4,29.15,NE,45,5.8,5.8,80,0.00,CLR,OVC,0.00,WeatherDisplay:10.37,2013-01-26 18:27:00,
2013-01-27 05:32:00,73.8,67.6,29.15,ENE,68,0.0,0.0,81,0.00,CLR,OVC,0.00,WeatherDisplay:10.37,2013-01-26 18:32:00,
2013-01-27 05:37:00,73.4,67.6,29.15,East,90,4.9,4.9,82,0.00,CLR,OVC,0.00,WeatherDisplay:10.37,2013-01-26 18:37:00,
2013-01-27 05:42:00,73.2,67.7,29.15,SE,135,2.3,2.3,83,0.08,RA,OVC,0.08,WeatherDisplay:10.37,2013-01-26 18:42:00,
2013-01-27 05:47:00,73.2,67.7,29.15,ESE,112,2.3,2.3,83,0.12,RA,OVC,0.12,WeatherDisplay:10.37,2013-01-26 18:47:00,
2013-01-27 05:52:00,73.2,68.1,29.15,WSW,248,0.0,0.0,84,0.20,RA,OVC,0.20,WeatherDisplay:10.37,2013-01-26 18:52:00,
2013-01-27 05:57:00,73.2,68.1,29.15,NNW,338,0.0,0.0,84,0.24,RA,OVC,0.24,WeatherDisplay:10.37,2013-01-26 18:57:00,
2013-01-27 06:02:00,73.2,68.4,29.18,NNW,338,0.0,0.0,85,0.29,RA,OVC,0.29,WeatherDisplay:10.37,2013-01-26 19:02:00,
2013-01-27 06:07:00,73.2,68.1,29.18,NW,315,0.0,0.0,84,0.41,RA,OVC,0.41,WeatherDisplay:10.37,2013-01-26 19:07:00,
2013-01-27 06:12:00,73.2,68.1,29.18,West,270,0.0,0.0,84,0.45,RA,OVC,0.45,WeatherDisplay:10.37,2013-01-26 19:12:00,
2013-01-27 06:17:00,73.2,68.4,29.18,West,270,0.0,0.0,85,0.49,RA,OVC,0.49,WeatherDisplay:10.37,2013-01-26 19:17:00,
2013-01-27 06:22:00,73.2,68.4,29.18,SW,225,0.0,0.0,85,0.54,RA,OVC,0.54,WeatherDisplay:10.37,2013-01-26 19:22:00,
2013-01-27 06:27:00,73.2,68.4,29.18,SSW,202,0.0,0.0,85,0.63,RA,OVC,0.63,WeatherDisplay:10.37,2013-01-26 19:27:00,
2013-01-27 06:32:00,73.2,68.4,29.18,East,90,0.0,0.0,85,0.67,RA,OVC,0.67,WeatherDisplay:10.37,2013-01-26 19:32:00,
2013-01-27 06:37:00,73.2,68.8,29.18,East,90,0.0,0.0,86,0.70,RA,OVC,0.70,WeatherDisplay:10.37,2013-01-26 19:37:00,
2013-01-27 06:42:00,73.0,68.6,29.18,ENE,68,0.0,0.0,86,0.63,RA,OVC,0.70,WeatherDisplay:10.37,2013-01-26 19:42:00,
2013-01-27 06:47:00,73.0,68.6,29.18,ESE,112,0.0,0.0,86,0.62,RA,OVC,0.79,WeatherDisplay:10.37,2013-01-26 19:47:00,
2013-01-27 06:52:00,73.0,68.6,29.18,NE,45,0.0,0.0,86,0.59,RA,OVC,0.83,WeatherDisplay:10.37,2013-01-26 19:52:00,
2013-01-27 06:57:00,73.0,68.9,29.18,East,90,0.0,0.0,87,0.68,RA,OVC,0.92,WeatherDisplay:10.37,2013-01-26 19:57:00,
2013-01-27 07:02:00,72.9,68.8,29.20,ESE,112,0.0,0.0,87,0.70,RA,OVC,1.00,WeatherDisplay:10.37,2013-01-26 20:02:00,
2013-01-27 07:07:00,72.9,68.8,29.20,ESE,112,2.3,2.3,87,0.58,RA,OVC,1.08,WeatherDisplay:10.37,2013-01-26 20:07:00,
2013-01-27 07:12:00,72.7,68.2,29.20,SSW,202,0.0,0.0,86,0.68,RA,OVC,1.13,WeatherDisplay:10.37,2013-01-26 20:12:00,
2013-01-27 07:17:00,72.9,68.4,29.20,SSE,158,0.0,0.0,86,0.68,RA,OVC,1.17,WeatherDisplay:10.37,2013-01-26 20:17:00,
2013-01-27 07:22:00,72.9,68.4,29.20,SE,135,0.0,0.0,86,0.67,RA,OVC,1.21,WeatherDisplay:10.37,2013-01-26 20:22:00,
2013-01-27 07:27:00,72.9,68.8,29.20,ENE,68,0.0,0.0,87,0.58,RA,OVC,1.25,WeatherDisplay:10.37,2013-01-26 20:27:00,
2013-01-27 07:32:00,72.7,68.6,29.20,ENE,68,0.0,0.0,87,0.62,RA,OVC,1.29,WeatherDisplay:10.37,2013-01-26 20:32:00,
2013-01-27 07:37:00,72.7,68.6,29.20,ENE,68,0.0,0.0,87,0.63,RA,OVC,1.34,WeatherDisplay:10.37,2013-01-26 20:37:00,
2013-01-27 07:42:00,72.7,68.6,29.20,NNE,22,0.0,0.0,87,0.63,RA,OVC,1.34,WeatherDisplay:10.37,2013-01-26 20:42:00,
2013-01-27 07:47:00,72.7,68.6,29.20,East,90,0.0,0.0,87,0.63,RA,OVC,1.37,WeatherDisplay:10.37,2013-01-26 20:47:00,
2013-01-27 07:52:00,72.7,68.6,29.20,SE,135,0.0,0.0,87,0.58,RA,OVC,1.37,WeatherDisplay:10.37,2013-01-26 20:52:00,
2013-01-27 07:57:00,72.7,68.9,29.20,ENE,68,0.0,0.0,88,0.50,RA,OVC,1.42,WeatherDisplay:10.37,2013-01-26 20:57:00,
2013-01-27 08:02:00,72.7,68.6,29.20,SE,135,0.0,0.0,87,0.43,RA,OVC,1.42,WeatherDisplay:10.37,2013-01-26 21:02:00,
2013-01-27 08:07:00,72.7,68.6,29.20,SE,135,0.0,0.0,87,0.43,CLR,OVC,1.42,WeatherDisplay:10.37,2013-01-26 21:07:00,
2013-01-27 08:12:00,72.9,68.8,29.20,NNE,22,5.4,0.0,87,0.33,RA,OVC,1.46,WeatherDisplay:10.37,2013-01-26 21:12:00,
2013-01-27 08:17:00,72.1,67.7,29.20,WSW,248,4.6,4.6,86,0.29,RA,OVC,1.46,WeatherDisplay:10.37,2013-01-26 21:17:00,
2013-01-27 08:22:00,71.8,67.0,29.20,WNW,292,3.5,3.5,85,0.25,CLR,OVC,1.46,WeatherDisplay:10.37,2013-01-26 21:22:00,
2013-01-27 08:27:00,71.6,66.5,29.20,ESE,112,2.3,0.0,84,0.29,RA,OVC,1.50,WeatherDisplay:10.37,2013-01-26 21:27:00,
2013-01-27 08:32:00,71.4,66.3,29.24,SSW,202,0.0,0.0,84,0.21,RA,OVC,1.50,WeatherDisplay:10.37,2013-01-26 21:32:00,
2013-01-27 08:37:00,71.4,66.3,29.24,West,270,2.3,2.3,84,0.16,CLR,OVC,1.50,WeatherDisplay:10.37,2013-01-26 21:37:00,
2013-01-27 08:42:00,71.4,66.7,29.24,WNW,292,2.3,2.3,85,0.20,RA,OVC,1.54,WeatherDisplay:10.37,2013-01-26 21:42:00,
2013-01-27 08:47:00,71.4,66.7,29.20,WNW,292,3.5,3.5,85,0.17,RA,OVC,1.54,WeatherDisplay:10.37,2013-01-26 21:47:00,
2013-01-27 08:52:00,71.2,66.5,29.20,West,270,2.3,2.3,85,0.17,CLR,OVC,1.54,WeatherDisplay:10.37,2013-01-26 21:52:00,
2013-01-27 08:57:00,71.2,66.5,29.20,West,270,2.6,0.0,85,0.12,CLR,OVC,1.54,WeatherDisplay:10.37,2013-01-26 21:57:00,
2013-01-27 09:02:00,71.1,66.3,29.20,NW,315,2.3,0.0,85,0.12,CLR,OVC,1.54,WeatherDisplay:10.37,2013-01-26 22:02:00,
2013-01-27 09:07:00,71.1,66.7,29.20,WNW,292,2.3,0.0,86,0.12,CLR,OVC,1.54,WeatherDisplay:10.37,2013-01-26 22:07:00,
2013-01-27 09:12:00,71.1,66.7,29.20,West,270,1.2,0.0,86,0.08,CLR,OVC,1.54,WeatherDisplay:10.37,2013-01-26 22:12:00,
2013-01-27 09:17:00,71.1,66.7,29.20,WNW,292,1.2,0.0,86,0.12,RA,OVC,1.58,WeatherDisplay:10.37,2013-01-26 22:17:00,
2013-01-27 09:22:00,71.1,66.7,29.20,WSW,248,0.0,0.0,86,0.12,RA,OVC,1.58,WeatherDisplay:10.37,2013-01-26 22:22:00,
2013-01-27 09:27:00,71.2,67.2,29.20,NW,315,2.3,2.3,87,0.08,CLR,OVC,1.58,WeatherDisplay:10.37,2013-01-26 22:27:00,
2013-01-27 09:32:00,71.2,66.8,29.20,NW,315,0.0,0.0,86,0.08,CLR,OVC,1.58,WeatherDisplay:10.37,2013-01-26 22:32:00,
2013-01-27 09:37:00,71.4,67.3,29.20,WNW,292,2.3,2.3,87,0.08,CLR,OVC,1.58,WeatherDisplay:10.37,2013-01-26 22:37:00,
2013-01-27 09:42:00,71.4,67.3,29.20,NNW,338,2.3,2.3,87,0.04,CLR,OVC,1.58,WeatherDisplay:10.37,2013-01-26 22:42:00,
2013-01-27 09:47:00,71.6,67.2,29.20,WNW,292,1.2,0.0,86,0.04,CLR,OVC,1.58,WeatherDisplay:10.37,2013-01-26 22:47:00,
2013-01-27 09:52:00,71.8,67.4,29.20,ENE,68,0.0,0.0,86,0.04,CLR,OVC,1.58,WeatherDisplay:10.37,2013-01-26 22:52:00,
2013-01-27 09:57:00,72.0,67.5,29.20,West,270,0.0,0.0,86,0.04,CLR,OVC,1.58,WeatherDisplay:10.37,2013-01-26 22:57:00,
2013-01-27 10:02:00,72.1,67.7,29.20,NNE,22,0.0,0.0,86,0.04,CLR,OVC,1.58,WeatherDisplay:10.37,2013-01-26 23:02:00,
2013-01-27 10:07:00,72.1,67.7,29.20,West,270,3.1,0.0,86,0.04,CLR,OVC,1.58,WeatherDisplay:10.37,2013-01-26 23:07:00,
2013-01-27 10:12:00,72.3,67.9,29.20,West,270,0.0,0.0,86,0.04,CLR,OVC,1.58,WeatherDisplay:10.37,2013-01-26 23:12:00,
2013-01-27 10:17:00,72.5,68.1,29.20,SSE,158,0.0,0.0,86,0.00,CLR,OVC,1.58,WeatherDisplay:10.37,2013-01-26 23:17:00,
2013-01-27 10:22:00,72.9,68.4,29.20,NNW,338,0.0,0.0,86,0.00,CLR,OVC,1.58,WeatherDisplay:10.37,2013-01-26 23:22:00,
2013-01-27 10:27:00,72.9,68.1,29.20,NNW,338,4.6,4.6,85,0.00,CLR,OVC,1.58,WeatherDisplay:10.37,2013-01-26 23:27:00,
2013-01-27 10:32:00,72.7,67.6,29.20,West,270,0.0,0.0,84,0.00,CLR,OVC,1.58,WeatherDisplay:10.37,2013-01-26 23:32:00,
2013-01-27 10:37:00,72.7,67.6,29.20,NNE,22,0.0,0.0,84,0.00,CLR,OVC,1.58,WeatherDisplay:10.37,2013-01-26 23:37:00,
2013-01-27 10:42:00,72.9,67.7,29.20,WNW,292,0.0,0.0,84,0.00,CLR,OVC,1.58,WeatherDisplay:10.37,2013-01-26 23:42:00,
2013-01-27 10:47:00,73.0,68.3,29.18,West,270,1.2,0.0,85,0.00,CLR,OVC,1.58,WeatherDisplay:10.37,2013-01-26 23:47:00,
2013-01-27 10:52:00,73.2,68.4,29.18,NW,315,2.4,2.4,85,0.00,CLR,OVC,1.58,WeatherDisplay:10.37,2013-01-26 23:52:00,
2013-01-27 10:57:00,73.2,68.4,29.18,WNW,292,1.4,0.0,85,0.00,CLR,OVC,1.58,WeatherDisplay:10.37,2013-01-26 23:57:00,
2013-01-27 11:02:00,73.2,68.1,29.20,West,270,2.3,0.0,84,0.00,CLR,OVC,1.58,WeatherDisplay:10.37,2013-01-27 00:02:00,
2013-01-27 11:07:00,73.2,68.1,29.20,WNW,292,3.5,0.0,84,0.00,CLR,OVC,1.58,WeatherDisplay:10.37,2013-01-27 00:07:00,
2013-01-27 11:12:00,73.4,68.3,29.20,West,270,0.0,0.0,84,0.00,CLR,OVC,1.58,WeatherDisplay:10.37,2013-01-27 00:12:00,
2013-01-27 11:17:00,73.4,68.3,29.20,WNW,292,0.0,0.0,84,0.00,CLR,OVC,1.58,WeatherDisplay:10.37,2013-01-27 00:17:00,
2013-01-27 11:22:00,73.6,68.4,29.20,North,0,0.0,0.0,84,0.00,CLR,OVC,1.58,WeatherDisplay:10.37,2013-01-27 00:22:00,
2013-01-27 11:27:00,73.6,68.4,29.20,NW,315,2.3,2.3,84,0.00,CLR,OVC,1.58,WeatherDisplay:10.37,2013-01-27 00:27:00,
2013-01-27 11:32:00,73.8,68.6,29.20,North,0,0.0,0.0,84,0.00,CLR,OVC,1.58,WeatherDisplay:10.37,2013-01-27 00:32:00,
2013-01-27 11:37:00,73.8,68.6,29.20,WNW,292,0.0,0.0,84,0.00,CLR,OVC,1.58,WeatherDisplay:10.37,2013-01-27 00:37:00,
2013-01-27 11:42:00,73.9,68.8,29.20,ENE,68,0.0,0.0,84,0.00,CLR,OVC,1.58,WeatherDisplay:10.37,2013-01-27 00:42:00,
2013-01-27 11:47:00,74.1,69.0,29.20,ENE,68,0.0,0.0,84,0.00,CLR,OVC,1.58,WeatherDisplay:10.37,2013-01-27 00:47:00,
2013-01-27 11:52:00,74.3,69.5,29.20,ENE,68,0.0,0.0,85,0.00,CLR,OVC,1.58,WeatherDisplay:10.37,2013-01-27 00:52:00,
2013-01-27 11:57:00,74.5,69.7,29.20,ENE,68,0.0,0.0,85,0.00,CLR,OVC,1.58,WeatherDisplay:10.37,2013-01-27 00:57:00,
2013-01-27 12:02:00,74.3,69.5,29.20,ENE,68,2.3,0.0,85,0.00,CLR,OVC,1.58,WeatherDisplay:10.37,2013-01-27 01:02:00,
2013-01-27 12:07:00,74.3,69.5,29.20,ENE,68,0.0,0.0,85,0.00,CLR,OVC,1.58,WeatherDisplay:10.37,2013-01-27 01:07:00,
2013-01-27 12:12:00,74.5,69.3,29.20,NNE,22,0.0,0.0,84,0.00,CLR,OVC,1.58,WeatherDisplay:10.37,2013-01-27 01:12:00,
2013-01-27 12:17:00,74.7,69.8,29.20,NE,45,0.0,0.0,85,0.00,CLR,OVC,1.58,WeatherDisplay:10.37,2013-01-27 01:17:00,
2013-01-27 12:22:00,74.7,69.5,29.20,ENE,68,1.6,0.0,84,0.00,CLR,OVC,1.58,WeatherDisplay:10.37,2013-01-27 01:22:00,
2013-01-27 12:27:00,74.5,69.3,29.20,NNE,22,2.6,2.6,84,0.00,CLR,OVC,1.58,WeatherDisplay:10.37,2013-01-27 01:27:00,
2013-01-27 12:32:00,74.3,69.1,29.20,NE,45,1.4,1.4,84,0.00,CLR,OVC,1.58,WeatherDisplay:10.37,2013-01-27 01:32:00,
2013-01-27 12:37:00,74.5,69.7,29.20,NNE,22,2.3,0.0,85,0.00,CLR,OVC,1.58,WeatherDisplay:10.37,2013-01-27 01:37:00,
2013-01-27 12:42:00,74.3,69.5,29.20,NE,45,0.0,0.0,85,0.04,RA,OVC,1.62,WeatherDisplay:10.37,2013-01-27 01:42:00,
2013-01-27 12:47:00,73.9,69.1,29.20,NE,45,2.3,2.3,85,0.04,RA,OVC,1.62,WeatherDisplay:10.37,2013-01-27 01:47:00,
2013-01-27 12:52:00,73.9,69.1,29.20,SE,135,0.0,0.0,85,0.04,,OVC,1.62,WeatherDisplay:10.37,2013-01-27 01:52:00,
2013-01-27 12:57:00,74.1,69.7,29.20,ENE,68,0.0,0.0,86,0.04,CLR,OVC,1.62,WeatherDisplay:10.37,2013-01-27 01:57:00,
2013-01-27 13:02:00,74.1,69.3,29.20,NE,45,0.0,0.0,85,0.04,CLR,OVC,1.62,WeatherDisplay:10.37,2013-01-27 02:02:00,
2013-01-27 13:07:00,74.1,69.3,29.20,ESE,112,0.0,0.0,85,0.04,CLR,OVC,1.62,WeatherDisplay:10.37,2013-01-27 02:07:00,
2013-01-27 13:12:00,74.3,69.1,29.20,SSE,158,0.0,0.0,84,0.04,CLR,OVC,1.62,WeatherDisplay:10.37,2013-01-27 02:12:00,
2013-01-27 13:17:00,74.1,68.6,29.20,SSE,158,1.2,0.0,83,0.04,CLR,OVC,1.62,WeatherDisplay:10.37,2013-01-27 02:17:00,
2013-01-27 13:22:00,74.3,68.4,29.20,SE,135,3.5,3.5,82,0.04,CLR,OVC,1.62,WeatherDisplay:10.37,2013-01-27 02:22:00,
2013-01-27 13:27:00,74.5,69.0,29.20,East,90,2.3,2.3,83,0.04,CLR,OVC,1.62,WeatherDisplay:10.37,2013-01-27 02:27:00,
2013-01-27 13:32:00,74.5,69.0,29.18,NE,45,0.0,0.0,83,0.04,CLR,OVC,1.62,WeatherDisplay:10.37,2013-01-27 02:32:00,
2013-01-27 13:37:00,74.7,69.5,29.18,ESE,112,0.0,0.0,84,0.04,CLR,OVC,1.62,WeatherDisplay:10.37,2013-01-27 02:37:00,
2013-01-27 13:42:00,74.8,69.3,29.18,SE,135,0.0,0.0,83,0.00,CLR,OVC,1.62,WeatherDisplay:10.37,2013-01-27 02:42:00,
2013-01-27 13:47:00,74.8,69.7,29.18,East,90,0.0,0.0,84,0.00,CLR,OVC,1.62,WeatherDisplay:10.37,2013-01-27 02:47:00,
2013-01-27 13:53:00,75.0,70.2,29.18,ENE,68,0.0,0.0,85,0.00,CLR,OVC,1.62,WeatherDisplay:10.37,2013-01-27 02:53:00,
2013-01-27 13:57:00,75.2,70.0,29.18,ENE,68,0.0,0.0,84,0.00,CLR,OVC,1.62,WeatherDisplay:10.37,2013-01-27 02:57:00,
2013-01-27 14:03:00,75.0,69.5,29.18,ENE,68,0.0,0.0,83,0.00,CLR,OVC,1.62,WeatherDisplay:10.37,2013-01-27 03:03:00,
2013-01-27 14:07:00,75.0,69.9,29.18,East,90,0.0,0.0,84,0.00,CLR,OVC,1.62,WeatherDisplay:10.37,2013-01-27 03:07:00,
2013-01-27 14:12:00,74.8,69.7,29.18,SE,135,0.0,0.0,84,0.00,CLR,OVC,1.62,WeatherDisplay:10.37,2013-01-27 03:12:00,
2013-01-27 14:17:00,74.7,69.5,29.18,SSE,158,0.0,0.0,84,0.00,CLR,OVC,1.62,WeatherDisplay:10.37,2013-01-27 03:17:00,
2013-01-27 14:22:00,74.8,69.7,29.18,ESE,112,0.0,0.0,84,0.00,CLR,OVC,1.62,WeatherDisplay:10.37,2013-01-27 03:22:00,
2013-01-27 14:27:00,74.8,69.7,29.18,WNW,292,2.2,0.0,84,0.00,CLR,OVC,1.62,WeatherDisplay:10.37,2013-01-27 03:27:00,
2013-01-27 14:32:00,74.1,67.9,29.18,WNW,292,4.6,4.6,81,0.00,CLR,OVC,1.62,WeatherDisplay:10.37,2013-01-27 03:32:00,
2013-01-27 14:37:00,74.1,68.3,29.18,SSE,158,0.0,0.0,82,0.05,RA,OVC,1.67,WeatherDisplay:10.37,2013-01-27 03:37:00,
2013-01-27 14:43:00,74.1,68.3,29.18,WNW,292,0.0,0.0,82,0.05,RA,OVC,1.67,WeatherDisplay:10.37,2013-01-27 03:43:00,
2013-01-27 14:48:00,74.1,68.3,29.15,NNE,22,0.0,0.0,82,0.05,,OVC,1.67,WeatherDisplay:10.37,2013-01-27 03:48:00,
2013-01-27 14:53:00,73.9,68.4,29.15,ENE,68,0.0,0.0,83,0.05,CLR,OVC,1.67,WeatherDisplay:10.37,2013-01-27 03:53:00,
2013-01-27 14:58:00,74.1,69.0,29.15,ENE,68,0.0,0.0,84,0.05,CLR,OVC,1.67,WeatherDisplay:10.37,2013-01-27 03:58:00,
2013-01-27 15:03:00,74.1,69.0,29.15,NE,45,0.0,0.0,84,0.05,CLR,OVC,1.67,WeatherDisplay:10.37,2013-01-27 04:03:00,
2013-01-27 15:08:00,73.9,69.1,29.15,West,270,0.0,0.0,85,0.05,CLR,OVC,1.67,WeatherDisplay:10.37,2013-01-27 04:08:00,
2013-01-27 15:13:00,73.9,69.1,29.15,WNW,292,0.0,0.0,85,0.05,CLR,OVC,1.67,WeatherDisplay:10.37,2013-01-27 04:13:00,
2013-01-27 15:18:00,73.9,69.1,29.15,WSW,248,0.0,0.0,85,0.05,CLR,OVC,1.67,WeatherDisplay:10.37,2013-01-27 04:18:00,
2013-01-27 15:23:00,73.9,69.1,29.15,WNW,292,0.0,0.0,85,0.05,CLR,OVC,1.67,WeatherDisplay:10.37,2013-01-27 04:23:00,
2013-01-27 15:28:00,73.9,69.1,29.15,West,270,0.0,0.0,85,0.05,CLR,OVC,1.67,WeatherDisplay:10.37,2013-01-27 04:28:00,
2013-01-27 15:33:00,73.9,69.5,29.15,East,90,0.0,0.0,86,0.09,RA,OVC,1.71,WeatherDisplay:10.37,2013-01-27 04:33:00,
2013-01-27 15:38:00,73.9,69.5,29.15,NNW,338,0.0,0.0,86,0.04,RA,OVC,1.71,WeatherDisplay:10.37,2013-01-27 04:38:00,
2013-01-27 15:43:00,73.9,69.1,29.15,SSW,202,0.0,0.0,85,0.04,,OVC,1.71,WeatherDisplay:10.37,2013-01-27 04:43:00,
2013-01-27 15:48:00,73.9,69.1,29.15,WNW,292,2.3,2.3,85,0.04,CLR,OVC,1.71,WeatherDisplay:10.37,2013-01-27 04:48:00,
2013-01-27 15:53:00,73.8,69.0,29.15,West,270,2.3,2.3,85,0.04,CLR,OVC,1.75,WeatherDisplay:10.37,2013-01-27 04:53:00,
2013-01-27 15:58:00,73.8,69.0,29.15,West,270,1.2,0.0,85,0.16,RA,OVC,1.83,WeatherDisplay:10.37,2013-01-27 04:58:00,
2013-01-27 16:00:00,73.6,68.8,29.15,WNW,292,1.2,0.0,85,0.16,RA,OVC,1.83,WeatherDisplay:10.37,2013-01-27 05:00:00,
2013-01-27 16:01:00,73.6,68.8,29.15,West,270,1.2,0.0,85,0.24,RA,OVC,1.91,WeatherDisplay:10.37,2013-01-27 05:01:00,
2013-01-27 16:06:00,73.6,68.8,29.15,SW,225,2.3,2.3,85,0.24,RA,OVC,1.91,WeatherDisplay:10.37,2013-01-27 05:06:00,
2013-01-27 16:11:00,73.4,68.6,29.15,West,270,0.0,0.0,85,0.33,RA,OVC,2.00,WeatherDisplay:10.37,2013-01-27 05:11:00,
2013-01-27 16:16:00,73.2,68.8,29.15,WNW,292,2.3,0.0,86,0.37,RA,OVC,2.04,WeatherDisplay:10.37,2013-01-27 05:16:00,
2013-01-27 16:21:00,73.0,68.6,29.15,WNW,292,1.2,0.0,86,0.41,RA,OVC,2.09,WeatherDisplay:10.37,2013-01-27 05:21:00,
2013-01-27 16:27:00,73.0,68.6,29.15,West,270,0.0,0.0,86,0.45,RA,OVC,2.13,WeatherDisplay:10.37,2013-01-27 05:27:00,
2013-01-27 16:31:00,72.9,68.4,29.12,NNW,338,0.0,0.0,86,0.54,RA,OVC,2.22,WeatherDisplay:10.37,2013-01-27 05:31:00,
2013-01-27 16:36:00,72.7,68.2,29.12,NE,45,0.0,0.0,86,0.54,RA,OVC,2.26,WeatherDisplay:10.37,2013-01-27 05:36:00,
2013-01-27 16:41:00,72.5,68.1,29.12,West,270,0.0,0.0,86,0.63,RA,OVC,2.34,WeatherDisplay:10.37,2013-01-27 05:41:00,
2013-01-27 16:46:00,72.7,68.2,29.15,NNE,22,1.2,0.0,86,0.67,RA,OVC,2.38,WeatherDisplay:10.37,2013-01-27 05:46:00,
2013-01-27 16:51:00,72.5,68.4,29.15,ESE,112,0.0,0.0,87,0.70,RA,OVC,2.42,WeatherDisplay:10.37,2013-01-27 05:51:00,
2013-01-27 16:57:00,72.5,68.1,29.15,East,90,0.0,0.0,86,0.63,RA,OVC,2.42,WeatherDisplay:10.37,2013-01-27 05:57:00,
2013-01-27 17:02:00,72.3,68.2,29.15,West,270,0.0,0.0,87,0.54,RA,OVC,2.46,WeatherDisplay:10.37,2013-01-27 06:02:00,
2013-01-27 17:07:00,72.5,68.1,29.15,WSW,248,3.5,3.5,86,0.59,RA,OVC,2.51,WeatherDisplay:10.37,2013-01-27 06:07:00,
2013-01-27 17:12:00,72.3,67.9,29.15,WSW,248,0.0,0.0,86,0.50,RA,OVC,2.51,WeatherDisplay:10.37,2013-01-27 06:12:00,
2013-01-27 17:17:00,72.3,68.2,29.15,NW,315,0.0,0.0,87,0.46,,OVC,2.51,WeatherDisplay:10.37,2013-01-27 06:17:00,
2013-01-27 17:22:00,72.5,68.4,29.15,West,270,0.0,0.0,87,0.46,RA,OVC,2.55,WeatherDisplay:10.37,2013-01-27 06:22:00,
2013-01-27 17:27:00,72.3,68.2,29.15,West,270,0.0,0.0,87,0.42,RA,OVC,2.55,WeatherDisplay:10.37,2013-01-27 06:27:00,
2013-01-27 17:32:00,72.5,68.4,29.15,West,270,0.0,0.0,87,0.33,CLR,OVC,2.55,WeatherDisplay:10.37,2013-01-27 06:32:00,
2013-01-27 17:37:00,72.3,68.2,29.15,WSW,248,0.0,0.0,87,0.29,CLR,OVC,2.55,WeatherDisplay:10.37,2013-01-27 06:37:00,
2013-01-27 17:42:00,72.3,67.9,29.15,SE,135,0.0,0.0,86,0.21,CLR,OVC,2.55,WeatherDisplay:10.37,2013-01-27 06:42:00,
2013-01-27 17:47:00,72.1,67.7,29.15,North,0,0.0,0.0,86,0.17,CLR,OVC,2.55,WeatherDisplay:10.37,2013-01-27 06:47:00,
2013-01-27 17:52:00,72.0,67.5,29.15,East,90,0.0,0.0,86,0.13,CLR,OVC,2.55,WeatherDisplay:10.37,2013-01-27 06:52:00,
2013-01-27 17:57:00,72.0,67.5,29.15,West,270,0.0,0.0,86,0.17,RA,OVC,2.59,WeatherDisplay:10.37,2013-01-27 06:57:00,
2013-01-27 18:02:00,72.0,67.9,29.15,East,90,0.0,0.0,87,0.17,RA,OVC,2.63,WeatherDisplay:10.37,2013-01-27 07:02:00,
2013-01-27 18:07:00,71.8,67.7,29.15,NW,315,0.0,0.0,87,0.16,RA,OVC,2.67,WeatherDisplay:10.37,2013-01-27 07:07:00,
2013-01-27 18:13:00,71.8,67.7,29.15,WNW,292,0.0,0.0,87,0.16,RA,OVC,2.67,WeatherDisplay:10.37,2013-01-27 07:13:00,
2013-01-27 18:18:00,71.8,67.7,29.18,WNW,292,0.0,0.0,87,0.16,RA,OVC,2.71,WeatherDisplay:10.37,2013-01-27 07:18:00,
2013-01-27 18:23:00,71.6,67.9,29.18,West,270,0.0,0.0,88,0.16,RA,OVC,2.71,WeatherDisplay:10.37,2013-01-27 07:23:00,
2013-01-27 18:28:00,71.8,68.0,29.18,WNW,292,0.0,0.0,88,0.16,CLR,OVC,2.71,WeatherDisplay:10.37,2013-01-27 07:28:00,
2013-01-27 18:33:00,71.8,68.0,29.18,WNW,292,0.0,0.0,88,0.20,RA,OVC,2.75,WeatherDisplay:10.37,2013-01-27 07:33:00,
2013-01-27 18:38:00,71.6,67.9,29.18,WNW,292,0.0,0.0,88,0.20,RA,OVC,2.75,WeatherDisplay:10.37,2013-01-27 07:38:00,
2013-01-27 18:43:00,71.8,68.0,29.18,West,270,0.0,0.0,88,0.20,CLR,OVC,2.79,WeatherDisplay:10.37,2013-01-27 07:43:00,
2013-01-27 18:48:00,71.6,67.9,29.18,WNW,292,0.0,0.0,88,0.24,RA,OVC,2.79,WeatherDisplay:10.37,2013-01-27 07:48:00,
2013-01-27 18:53:00,71.6,67.9,29.18,WNW,292,0.0,0.0,88,0.24,RA,OVC,2.79,WeatherDisplay:10.37,2013-01-27 07:53:00,
2013-01-27 18:58:00,71.6,67.9,29.18,West,270,0.0,0.0,88,0.20,CLR,OVC,2.79,WeatherDisplay:10.37,2013-01-27 07:58:00,
2013-01-27 19:03:00,71.4,67.7,29.18,WNW,292,0.0,0.0,88,0.16,CLR,OVC,2.79,WeatherDisplay:10.37,2013-01-27 08:03:00,
2013-01-27 19:08:00,71.4,67.7,29.18,WNW,292,0.0,0.0,88,0.12,CLR,OVC,2.79,WeatherDisplay:10.37,2013-01-27 08:08:00,
2013-01-27 19:13:00,71.4,67.7,29.18,WNW,292,0.0,0.0,88,0.12,CLR,OVC,2.79,WeatherDisplay:10.37,2013-01-27 08:13:00,
2013-01-27 19:18:00,71.2,67.5,29.18,West,270,0.0,0.0,88,0.08,CLR,OVC,2.79,WeatherDisplay:10.37,2013-01-27 08:18:00,
2013-01-27 19:23:00,71.2,67.5,29.18,WNW,292,0.0,0.0,88,0.08,CLR,OVC,2.79,WeatherDisplay:10.37,2013-01-27 08:23:00,
2013-01-27 19:28:00,71.1,67.3,29.18,WNW,292,0.0,0.0,88,0.08,CLR,OVC,2.79,WeatherDisplay:10.37,2013-01-27 08:28:00,
2013-01-27 19:33:00,71.1,67.3,29.20,WNW,292,0.0,0.0,88,0.04,CLR,OVC,2.79,WeatherDisplay:10.37,2013-01-27 08:33:00,
2013-01-27 19:38:00,71.1,67.3,29.20,WNW,292,0.0,0.0,88,0.04,CLR,OVC,2.79,WeatherDisplay:10.37,2013-01-27 08:38:00,
2013-01-27 19:43:00,71.1,67.3,29.20,West,270,0.0,0.0,88,0.04,CLR,OVC,2.79,WeatherDisplay:10.37,2013-01-27 08:43:00,
2013-01-27 19:48:00,71.1,67.0,29.20,West,270,0.0,0.0,87,0.00,CLR,OVC,2.79,WeatherDisplay:10.37,2013-01-27 08:48:00,
2013-01-27 19:53:00,71.1,67.3,29.20,West,270,0.0,0.0,88,0.00,CLR,OVC,2.79,WeatherDisplay:10.37,2013-01-27 08:53:00,
2013-01-27 19:58:00,71.1,67.3,29.20,West,270,0.0,0.0,88,0.00,CLR,OVC,2.79,WeatherDisplay:10.37,2013-01-27 08:58:00,
2013-01-27 20:03:00,70.9,67.1,29.20,West,270,0.0,0.0,88,0.00,CLR,OVC,2.79,WeatherDisplay:10.37,2013-01-27 09:03:00,
2013-01-27 20:08:00,70.9,67.1,29.20,West,270,0.0,0.0,88,0.00,CLR,OVC,2.79,WeatherDisplay:10.37,2013-01-27 09:08:00,
2013-01-27 20:13:00,70.7,67.0,29.20,NW,315,0.0,0.0,88,0.00,CLR,OVC,2.79,WeatherDisplay:10.37,2013-01-27 09:13:00,
2013-01-27 20:18:00,70.7,67.0,29.20,NW,315,0.0,0.0,88,0.00,CLR,OVC,2.79,WeatherDisplay:10.37,2013-01-27 09:18:00,
2013-01-27 20:23:00,70.7,67.0,29.20,NW,315,0.0,0.0,88,0.00,CLR,OVC,2.79,WeatherDisplay:10.37,2013-01-27 09:23:00,
2013-01-27 20:28:00,70.7,67.0,29.20,WNW,292,0.0,0.0,88,0.00,CLR,OVC,2.79,WeatherDisplay:10.37,2013-01-27 09:28:00,
2013-01-27 20:33:00,70.7,67.0,29.20,West,270,0.0,0.0,88,0.00,CLR,OVC,2.79,WeatherDisplay:10.37,2013-01-27 09:33:00,
2013-01-27 20:38:00,70.7,67.0,29.20,WNW,292,0.0,0.0,88,0.00,CLR,OVC,2.79,WeatherDisplay:10.37,2013-01-27 09:38:00,
2013-01-27 20:43:00,70.7,67.0,29.20,WNW,292,0.0,0.0,88,0.00,CLR,OVC,2.79,WeatherDisplay:10.37,2013-01-27 09:43:00,
2013-01-27 20:48:00,70.7,67.3,29.20,West,270,0.0,0.0,89,0.00,CLR,OVC,2.79,WeatherDisplay:10.37,2013-01-27 09:48:00,
2013-01-27 20:53:00,70.5,66.8,29.20,West,270,0.0,0.0,88,0.00,CLR,OVC,2.79,WeatherDisplay:10.37,2013-01-27 09:53:00,
2013-01-27 20:58:00,70.5,66.5,29.20,SW,225,0.0,0.0,87,0.00,CLR,OVC,2.79,WeatherDisplay:10.37,2013-01-27 09:58:00,
2013-01-27 21:03:00,70.7,67.0,29.20,WSW,248,0.0,0.0,88,0.00,CLR,OVC,2.79,WeatherDisplay:10.37,2013-01-27 10:03:00,
2013-01-27 21:08:00,70.7,67.0,29.20,West,270,0.0,0.0,88,0.00,CLR,OVC,2.79,WeatherDisplay:10.37,2013-01-27 10:08:00,
2013-01-27 21:13:00,70.7,67.0,29.20,SW,225,1.2,0.0,88,0.05,RA,OVC,2.84,WeatherDisplay:10.37,2013-01-27 10:13:00,
2013-01-27 21:18:00,70.7,66.6,29.20,West,270,0.0,0.0,87,0.05,RA,OVC,2.84,WeatherDisplay:10.37,2013-01-27 10:18:00,
2013-01-27 21:23:00,70.7,66.6,29.20,West,270,3.5,3.5,87,0.05,,OVC,2.84,WeatherDisplay:10.37,2013-01-27 10:23:00,
2013-01-27 21:28:00,70.7,66.6,29.20,West,270,1.2,0.0,87,0.05,CLR,OVC,2.84,WeatherDisplay:10.37,2013-01-27 10:28:00,
2013-01-27 21:33:00,70.7,67.0,29.20,WNW,292,0.0,0.0,88,0.05,CLR,OVC,2.84,WeatherDisplay:10.37,2013-01-27 10:33:00,
2013-01-27 21:38:00,70.7,67.0,29.20,SE,135,0.0,0.0,88,0.05,CLR,OVC,2.84,WeatherDisplay:10.37,2013-01-27 10:38:00,
2013-01-27 21:43:00,70.7,67.0,29.20,ESE,112,0.0,0.0,88,0.05,CLR,OVC,2.84,WeatherDisplay:10.37,2013-01-27 10:43:00,
2013-01-27 21:48:00,70.5,67.1,29.20,East,90,1.2,0.0,89,0.05,CLR,OVC,2.84,WeatherDisplay:10.37,2013-01-27 10:48:00,
2013-01-27 21:53:00,70.5,67.4,29.20,SE,135,4.6,4.6,90,0.05,CLR,OVC,2.84,WeatherDisplay:10.37,2013-01-27 10:53:00,
2013-01-27 21:58:00,70.5,67.4,29.20,East,90,4.6,4.6,90,0.05,CLR,OVC,2.84,WeatherDisplay:10.37,2013-01-27 10:58:00,
2013-01-27 22:03:00,70.5,67.4,29.20,East,90,2.3,2.3,90,0.05,CLR,OVC,2.84,WeatherDisplay:10.37,2013-01-27 11:03:00,
2013-01-27 22:08:00,70.5,67.8,29.20,East,90,2.0,2.0,91,0.05,CLR,OVC,2.84,WeatherDisplay:10.37,2013-01-27 11:08:00,
2013-01-27 22:13:00,70.5,67.4,29.20,ESE,112,5.8,5.8,90,0.00,CLR,OVC,2.84,WeatherDisplay:10.37,2013-01-27 11:13:00,
2013-01-27 22:18:00,70.5,67.8,29.20,ESE,112,4.6,4.6,91,0.00,CLR,OVC,2.84,WeatherDisplay:10.37,2013-01-27 11:18:00,
2013-01-27 22:23:00,70.3,67.6,29.20,East,90,5.8,5.8,91,0.00,CLR,OVC,2.84,WeatherDisplay:10.37,2013-01-27 11:23:00,
2013-01-27 22:28:00,70.3,67.6,29.20,North,0,5.8,5.8,91,0.00,CLR,OVC,2.84,WeatherDisplay:10.37,2013-01-27 11:28:00,
2013-01-27 22:33:00,70.5,67.8,29.20,SSE,158,6.9,6.9,91,0.00,CLR,OVC,2.84,WeatherDisplay:10.37,2013-01-27 11:33:00,
2013-01-27 22:38:00,70.5,67.8,29.20,ENE,68,2.3,2.3,91,0.00,CLR,OVC,2.84,WeatherDisplay:10.37,2013-01-27 11:38:00,
2013-01-27 22:43:00,70.5,67.8,29.20,East,90,2.3,2.3,91,0.00,CLR,OVC,2.84,WeatherDisplay:10.37,2013-01-27 11:43:00,
2013-01-27 22:48:00,70.5,67.8,29.20,ESE,112,5.8,5.8,91,0.00,CLR,OVC,2.84,WeatherDisplay:10.37,2013-01-27 11:48:00,
2013-01-27 22:53:00,70.5,67.8,29.20,SE,135,3.5,3.5,91,0.00,CLR,OVC,2.84,WeatherDisplay:10.37,2013-01-27 11:53:00,
2013-01-27 22:58:00,70.5,67.8,29.20,SE,135,5.8,5.8,91,0.00,CLR,OVC,2.84,WeatherDisplay:10.37,2013-01-27 11:58:00,
2013-01-27 23:03:00,70.5,67.8,29.20,ESE,112,5.6,5.6,91,0.00,CLR,OVC,2.84,WeatherDisplay:10.37,2013-01-27 12:03:00,
2013-01-27 23:08:00,70.7,67.9,29.20,ESE,112,4.0,4.0,91,0.00,CLR,OVC,2.84,WeatherDisplay:10.37,2013-01-27 12:08:00,
2013-01-27 23:13:00,70.7,67.9,29.20,ENE,68,5.8,5.8,91,0.00,CLR,OVC,2.84,WeatherDisplay:10.37,2013-01-27 12:13:00,
2013-01-27 23:18:00,70.7,67.9,29.20,ENE,68,2.3,2.3,91,0.00,CLR,OVC,2.84,WeatherDisplay:10.37,2013-01-27 12:18:00,
2013-01-27 23:23:00,70.7,67.9,29.20,ENE,68,3.5,3.5,91,0.00,CLR,OVC,2.84,WeatherDisplay:10.37,2013-01-27 12:23:00,
2013-01-27 23:29:00,70.7,68.3,29.20,ESE,112,4.9,4.9,92,0.00,CLR,OVC,2.84,WeatherDisplay:10.37,2013-01-27 12:29:00,
2013-01-27 23:34:00,70.7,68.3,29.18,ESE,112,4.6,4.6,92,0.00,CLR,OVC,2.84,WeatherDisplay:10.37,2013-01-27 12:34:00,
2013-01-27 23:39:00,70.7,68.3,29.18,ESE,112,6.9,6.9,92,0.00,CLR,OVC,2.84,WeatherDisplay:10.37,2013-01-27 12:39:00,
2013-01-27 23:44:00,70.7,68.3,29.18,NE,45,4.6,4.6,92,0.00,CLR,OVC,2.84,WeatherDisplay:10.37,2013-01-27 12:44:00,
2013-01-27 23:49:00,70.7,68.3,29.18,East,90,5.8,5.8,92,0.00,CLR,OVC,2.84,WeatherDisplay:10.37,2013-01-27 12:49:00,
2013-01-27 23:54:00,70.7,68.3,29.18,ESE,112,9.2,9.2,92,0.00,CLR,OVC,2.84,WeatherDisplay:10.37,2013-01-27 12:54:00,
2013-01-27 23:59:00,70.7,68.3,29.18,ESE,112,8.1,8.1,92,0.00,CLR,OVC,2.84,WeatherDisplay:10.37,2013-01-27 12:59:00,